Location: Hohe Wand Kleine Kanzel
(47.8330°N, 16.0170°E)
Time: 21:23:08
(UTC+02:00)

Courier 1B Rocket - Visible Passes

Search period start: 27 July 2021 00:00
Search period end: 06 August 2021 00:00
Orbit: 920 x 1202 km, 28.2° (Epoch: 26 July)

Date Brightness Start Highest point End Pass type
(mag) Time Alt. Az. Time Alt. Az. Time Alt. Az.
29 Jul 6.9 04:33:44 10° S 04:34:59 11° S 04:36:14 10° SSE visible
31 Jul 6.8 04:23:34 10° SSW 04:25:48 12° S 04:28:00 10° SSE visible
01 Aug 6.8 03:25:45 11° SSE 03:25:45 11° SSE 03:27:03 10° SSE visible
02 Aug 6.7 04:14:50 11° SSW 04:16:37 12° S 04:19:06 10° SSE visible
03 Aug 6.9 03:17:36 12° SSE 03:17:36 12° SSE 03:18:39 10° SSE visible
04 Aug 6.7 04:06:51 12° SSW 04:07:25 12° S 04:09:46 10° SSE visible
